Location: Philomena
(55.1756°N, 111.6233°W)
Time: 10:29:15
(UTC+00:00)

PCSat - Pass Details

Date: 12 December 2023
Orbit: 784 x 791 km, 67.0° (Epoch: 23 February)

Event Time Altitude Azimuth Distance (km) Brightness Sun altitude
Exits shadow 13:57:55 17° 315° (NW) 1,920 11.0 -13.6°
Maximum altitude 14:00:33 24° 354° (N) 1,604 10.9 -13.3°
Drops below altitude 10° 14:04:55 10° 47° (NE) 2,366 12.4 -12.7°
Sets 14:07:49 0° 61° (ENE) 3,297 13.4 -12.3°
